| time (UTC) | temp F | wind direction | speed MPH | gust MPH | rain 1hr in | rain 24hr in | rain mn in | humidity % | barometer mb |
| 20260831064002 | 70 | 0 | 0.0 | 2.0 | 0.00 | 0.00 | 0.00 | 92 | 1020.3 |
| 20260831063523 | 70 | 155 | 0.0 | 2.0 | 0.00 | 0.00 | 0.00 | 92 | 1020.3 |
| 20260831063003 | 70 | 0 | 0.0 | 0.0 | 0.00 | 0.00 | 0.00 | 92 | 1020.3 |
| 20260831062524 | 70 | 0 | 0.0 | 0.0 | 0.00 | 0.00 | 0.00 | 92 | 1020.2 |
| 20260831062002 | 70 | 0 | 0.0 | 1.0 | 0.00 | 0.00 | 0.00 | 92 | 1020.2 |
| 20260831061502 | 70 | 155 | 0.0 | 1.0 | 0.00 | 0.00 | 0.00 | 92 | 1020.2 |
| 20260831061002 | 70 | 0 | 0.0 | 0.0 | 0.00 | 0.00 | 0.00 | 92 | 1020.2 |
| 20260831060523 | 70 | 0 | 0.0 | 0.0 | 0.00 | 0.00 | 0.00 | 91 | 1020.2 |
| 20260831060003 | 70 | 0 | 0.0 | 0.0 | 0.00 | 0.00 | 0.00 | 91 | 1020.3 |
| 20260831055502 | 71 | 0 | 0.0 | 0.0 | 0.00 | 0.00 | 0.00 | 91 | 1020.3 |
| 20260831055003 | 71 | 0 | 0.0 | 0.0 | 0.00 | 0.00 | 0.00 | 91 | 1020.3 |
| 20260831054502 | 71 | 0 | 0.0 | 0.0 | 0.00 | 0.00 | 0.00 | 91 | 1020.3 |
| 20260831054002 | 71 | 0 | 0.0 | 0.0 | 0.00 | 0.00 | 0.00 | 91 | 1020.3 |
| 20260831053502 | 71 | 0 | 0.0 | 2.0 | 0.00 | 0.00 | 0.00 | 91 | 1020.4 |
| 20260831053003 | 71 | 0 | 0.0 | 2.0 | 0.00 | 0.00 | 0.00 | 91 | 1020.3 |
| 20260831052502 | 71 | 155 | 1.0 | 2.0 | 0.00 | 0.00 | 0.00 | 91 | 1020.2 |
| 20260831052003 | 71 | 155 | 1.0 | 2.0 | 0.00 | 0.00 | 0.00 | 91 | 1020.3 |
| 20260831051503 | 71 | 155 | 1.0 | 2.0 | 0.00 | 0.00 | 0.00 | 91 | 1020.3 |
| 20260831051003 | 71 | 0 | 0.0 | 1.0 | 0.00 | 0.00 | 0.00 | 91 | 1020.3 |
| 20260831050502 | 71 | 0 | 0.0 | 1.0 | 0.00 | 0.00 | 0.00 | 89 | 1020.3 |
| 20260831050002 | 71 | 155 | 0.0 | 1.0 | 0.00 | 0.00 | 0.00 | 89 | 1020.4 |
| 20260831045523 | 71 | 0 | 0.0 | 0.0 | 0.00 | 0.00 | 0.00 | 89 | 1020.3 |
| 20260831045004 | 71 | 0 | 0.0 | 0.0 | 0.00 | 0.00 | 0.00 | 89 | 1020.3 |
| 20260831044502 | 72 | 0 | 0.0 | 0.0 | 0.00 | 0.00 | 0.00 | 89 | 1020.4 |
| 20260831044003 | 72 | 0 | 0.0 | 0.0 | 0.00 | 0.00 | 0.00 | 89 | 1020.4 |
| 20260831043504 | 72 | 0 | 0.0 | 0.0 | 0.00 | 0.00 | 0.00 | 89 | 1020.4 |
| 20260831043002 | 72 | 0 | 0.0 | 1.0 | 0.00 | 0.00 | 0.00 | 89 | 1020.5 |
| 20260831042504 | 72 | 155 | 0.0 | 1.0 | 0.00 | 0.00 | 0.00 | 88 | 1020.6 |
| 20260831042023 | 72 | 0 | 0.0 | 0.0 | 0.00 | 0.00 | 0.00 | 88 | 1020.5 |
| 20260831041502 | 72 | 0 | 0.0 | 0.0 | 0.00 | 0.00 | 0.00 | 88 | 1020.5 |
| 20260831041002 | 72 | 0 | 0.0 | 0.0 | 0.00 | 0.00 | 0.00 | 88 | 1020.6 |
| 20260831040503 | 72 | 0 | 0.0 | 1.0 | 0.00 | 0.00 | 0.00 | 88 | 1020.6 |
| 20260831040002 | 72 | 0 | 0.0 | 2.0 | 0.00 | 0.00 | 0.00 | 87 | 1020.7 |
| 20260831035503 | 72 | 155 | 2.0 | 2.0 | 0.00 | 0.00 | 0.00 | 87 | 1020.7 |
| 20260831035003 | 72 | 155 | 2.0 | 2.0 | 0.00 | 0.00 | 0.00 | 87 | 1020.7 |
| 20260831034503 | 72 | 0 | 0.0 | 0.0 | 0.00 | 0.00 | 0.00 | 87 | 1020.6 |
| 20260831034004 | 72 | 0 | 0.0 | 0.0 | 0.00 | 0.00 | 0.00 | 87 | 1020.7 |
| 20260831033503 | 73 | 0 | 0.0 | 0.0 | 0.00 | 0.00 | 0.00 | 87 | 1020.6 |
| 20260831033024 | 73 | 0 | 0.0 | 0.0 | 0.00 | 0.00 | 0.00 | 87 | 1020.7 |
| 20260831032523 | 73 | 0 | 0.0 | 0.0 | 0.00 | 0.00 | 0.00 | 87 | 1020.7 |
| 20260831032002 | 73 | 0 | 0.0 | 0.0 | 0.00 | 0.00 | 0.00 | 86 | 1020.7 |
| 20260831031523 | 73 | 0 | 0.0 | 0.0 | 0.00 | 0.00 | 0.00 | 86 | 1020.6 |
| 20260831031024 | 73 | 0 | 0.0 | 2.0 | 0.00 | 0.00 | 0.00 | 86 | 1020.7 |
| 20260831030502 | 73 | 155 | 0.0 | 2.0 | 0.00 | 0.00 | 0.00 | 86 | 1020.6 |
| 20260831030002 | 74 | 0 | 0.0 | 0.0 | 0.00 | 0.00 | 0.00 | 86 | 1020.6 |
| 20260831025503 | 74 | 0 | 0.0 | 2.0 | 0.00 | 0.00 | 0.00 | 86 | 1020.7 |
| 20260831025002 | 74 | 0 | 0.0 | 2.0 | 0.00 | 0.00 | 0.00 | 84 | 1020.7 |
| 20260831024502 | 74 | 155 | 1.0 | 2.0 | 0.00 | 0.00 | 0.00 | 84 | 1020.8 |
| 20260831024002 | 74 | 0 | 0.0 | 0.0 | 0.00 | 0.00 | 0.00 | 84 | 1020.7 |
| 20260831023502 | 74 | 0 | 0.0 | 2.0 | 0.00 | 0.00 | 0.00 | 83 | 1020.6 |
| 20260831023024 | 75 | 0 | 0.0 | 2.0 | 0.00 | 0.00 | 0.00 | 83 | 1020.6 |
| 20260831022503 | 75 | 155 | 1.0 | 2.0 | 0.00 | 0.00 | 0.00 | 83 | 1020.5 |
| 20260831022004 | 75 | 0 | 0.0 | 1.0 | 0.00 | 0.00 | 0.00 | 83 | 1020.6 |
| 20260831021504 | 75 | 0 | 0.0 | 2.0 | 0.00 | 0.00 | 0.00 | 82 | 1020.7 |
| 20260831021003 | 75 | 155 | 1.0 | 2.0 | 0.00 | 0.00 | 0.00 | 82 | 1020.6 |
| 20260831020523 | 75 | 155 | 1.0 | 2.0 | 0.00 | 0.00 | 0.00 | 82 | 1020.6 |
| 20260831020003 | 75 | 0 | 0.0 | 0.0 | 0.00 | 0.00 | 0.00 | 82 | 1020.7 |
| 20260831015503 | 76 | 0 | 0.0 | 0.0 | 0.00 | 0.00 | 0.00 | 82 | 1020.6 |
| 20260831015002 | 76 | 0 | 0.0 | 2.0 | 0.00 | 0.00 | 0.00 | 81 | 1020.5 |
| 20260831014503 | 76 | 155 | 0.0 | 2.0 | 0.00 | 0.00 | 0.00 | 79 | 1020.5 |
| 20260831014002 | 77 | 155 | 0.0 | 3.0 | 0.00 | 0.00 | 0.00 | 79 | 1020.4 |
| 20260831013502 | 77 | 155 | 1.0 | 3.0 | 0.00 | 0.00 | 0.00 | 79 | 1020.5 |
| 20260831013003 | 77 | 155 | 2.0 | 2.0 | 0.00 | 0.00 | 0.00 | 79 | 1020.6 |
| 20260831012503 | 77 | 155 | 0.0 | 3.0 | 0.00 | 0.00 | 0.00 | 78 | 1020.6 |
| 20260831012003 | 77 | 155 | 1.0 | 3.0 | 0.00 | 0.00 | 0.00 | 77 | 1020.4 |
| 20260831011503 | 78 | 155 | 1.0 | 4.0 | 0.00 | 0.00 | 0.00 | 77 | 1020.4 |
| 20260831011003 | 78 | 155 | 2.0 | 4.0 | 0.00 | 0.00 | 0.00 | 77 | 1020.3 |
| 20260831010504 | 78 | 155 | 1.0 | 3.0 | 0.00 | 0.00 | 0.00 | 76 | 1020.4 |
| 20260831010002 | 78 | 155 | 1.0 | 4.0 | 0.00 | 0.00 | 0.00 | 76 | 1020.4 |
| 20260831005502 | 78 | 155 | 1.0 | 5.0 | 0.00 | 0.00 | 0.00 | 76 | 1020.3 |
| 20260831005023 | 78 | 155 | 2.0 | 5.0 | 0.00 | 0.00 | 0.00 | 75 | 1020.3 |
| 20260831004503 | 79 | 155 | 2.0 | 5.0 | 0.00 | 0.00 | 0.00 | 75 | 1020.2 |
| 20260831004002 | 79 | 155 | 2.0 | 5.0 | 0.00 | 0.00 | 0.00 | 75 | 1020.2 |
| 20260831003503 | 79 | 155 | 0.0 | 4.0 | 0.00 | 0.00 | 0.00 | 74 | 1020.1 |
| 20260831003002 | 79 | 155 | 2.0 | 4.0 | 0.00 | 0.00 | 0.00 | 74 | 1020.0 |
| 20260831002504 | 79 | 155 | 2.0 | 4.0 | 0.00 | 0.00 | 0.00 | 74 | 1019.9 |
| 20260831002002 | 79 | 155 | 1.0 | 3.0 | 0.00 | 0.00 | 0.00 | 74 | 1019.8 |
| 20260831001502 | 79 | 155 | 0.0 | 6.0 | 0.00 | 0.00 | 0.00 | 72 | 1019.8 |
| 20260831001003 | 79 | 155 | 1.0 | 6.0 | 0.00 | 0.00 | 0.00 | 72 | 1019.8 |
| 20260831000502 | 80 | 156 | 2.0 | 4.0 | 0.00 | 0.00 | 0.00 | 72 | 1019.7 |
| 20260831000002 | 80 | 156 | 2.0 | 3.0 | 0.00 | 0.00 | 0.00 | 71 | 1019.8 |
| 20260830235503 | 80 | 156 | 1.0 | 5.0 | 0.00 | 0.00 | 0.00 | 70 | 1019.7 |
| 20260830235023 | 81 | 156 | 1.0 | 5.0 | 0.00 | 0.00 | 0.00 | 70 | 1019.8 |
| 20260830234504 | 81 | 159 | 1.0 | 5.0 | 0.00 | 0.00 | 0.00 | 69 | 1019.7 |
| 20260830234002 | 81 | 150 | 1.0 | 5.0 | 0.00 | 0.00 | 0.00 | 68 | 1019.7 |
| 20260830233503 | 82 | 167 | 2.0 | 5.0 | 0.00 | 0.00 | 0.00 | 67 | 1019.8 |
| 20260830233002 | 82 | 150 | 2.0 | 6.0 | 0.00 | 0.00 | 0.00 | 67 | 1019.8 |
| 20260830232503 | 82 | 156 | 3.0 | 7.0 | 0.00 | 0.00 | 0.00 | 65 | 1019.8 |
| 20260830232004 | 82 | 158 | 4.0 | 7.0 | 0.00 | 0.00 | 0.00 | 65 | 1019.8 |
| 20260830231503 | 82 | 159 | 3.0 | 5.0 | 0.00 | 0.00 | 0.00 | 65 | 1019.9 |
| 20260830231003 | 82 | 159 | 2.0 | 6.0 | 0.00 | 0.00 | 0.00 | 65 | 1019.9 |
| 20260830230503 | 82 | 159 | 2.0 | 6.0 | 0.00 | 0.00 | 0.00 | 67 | 1019.9 |
| 20260830230002 | 82 | 0 | 0.0 | 4.0 | 0.00 | 0.00 | 0.00 | 67 | 1019.9 |
| 20260830225502 | 82 | 174 | 1.0 | 4.0 | 0.00 | 0.00 | 0.00 | 68 | 1019.8 |
| 20260830225003 | 83 | 174 | 0.0 | 2.0 | 0.00 | 0.00 | 0.00 | 67 | 1019.8 |
| 20260830224503 | 83 | 0 | 0.0 | 4.0 | 0.00 | 0.00 | 0.00 | 63 | 1019.7 |
| 20260830224024 | 83 | 174 | 2.0 | 6.0 | 0.00 | 0.00 | 0.00 | 62 | 1019.6 |
| 20260830223524 | 84 | 176 | 2.0 | 6.0 | 0.00 | 0.00 | 0.00 | 62 | 1019.6 |
| 20260830223003 | 84 | 172 | 2.0 | 6.0 | 0.00 | 0.00 | 0.00 | 61 | 1019.6 |
| 20260830222502 | 84 | 172 | 2.0 | 6.0 | 0.00 | 0.00 | 0.00 | 61 | 1019.5 |
| 20260830222003 | 84 | 177 | 2.0 | 7.0 | 0.00 | 0.00 | 0.00 | 62 | 1019.5 |
| 20260830221502 | 84 | 197 | 3.0 | 7.0 | 0.00 | 0.00 | 0.00 | 61 | 1019.5 |
| 20260830221003 | 84 | 175 | 3.0 | 6.0 | 0.00 | 0.00 | 0.00 | 61 | 1019.5 |
| 20260830220503 | 84 | 154 | 2.0 | 6.0 | 0.00 | 0.00 | 0.00 | 62 | 1019.7 |
| 20260830220004 | 84 | 21 | 2.0 | 8.0 | 0.00 | 0.00 | 0.00 | 61 | 1019.4 |
| 20260830215504 | 84 | 32 | 4.0 | 8.0 | 0.00 | 0.00 | 0.00 | 61 | 1019.6 |
| 20260830215025 | 84 | 22 | 3.0 | 8.0 | 0.00 | 0.00 | 0.00 | 61 | 1019.5 |
| 20260830214523 | 84 | 37 | 3.0 | 6.0 | 0.00 | 0.00 | 0.00 | 61 | 1019.6 |
| 20260830214002 | 85 | 41 | 2.0 | 7.0 | 0.00 | 0.00 | 0.00 | 60 | 1019.7 |
| 20260830213502 | 85 | 26 | 4.0 | 7.0 | 0.00 | 0.00 | 0.00 | 59 | 1019.7 |
| 20260830213002 | 86 | 172 | 2.0 | 7.0 | 0.00 | 0.00 | 0.00 | 59 | 1019.7 |
| 20260830212524 | 86 | 155 | 4.0 | 11.0 | 0.00 | 0.00 | 0.00 | 60 | 1019.7 |
| 20260830212003 | 86 | 14 | 6.0 | 11.0 | 0.00 | 0.00 | 0.00 | 60 | 1019.7 |
| 20260830211524 | 87 | 23 | 4.0 | 6.0 | 0.00 | 0.00 | 0.00 | 56 | 1019.7 |
| 20260830211004 | 88 | 35 | 2.0 | 4.0 | 0.00 | 0.00 | 0.00 | 56 | 1019.7 |
| 20260830210503 | 88 | 229 | 2.0 | 7.0 | 0.00 | 0.00 | 0.00 | 57 | 1019.7 |
| 20260830210004 | 88 | 155 | 3.0 | 7.0 | 0.00 | 0.00 | 0.00 | 56 | 1019.7 |
| 20260830205525 | 88 | 19 | 0.0 | 8.0 | 0.00 | 0.00 | 0.00 | 55 | 1019.7 |
| 20260830205003 | 88 | 39 | 2.0 | 8.0 | 0.00 | 0.00 | 0.00 | 57 | 1019.7 |
| 20260830204503 | 88 | 165 | 2.0 | 7.0 | 0.00 | 0.00 | 0.00 | 59 | 1019.7 |
| 20260830204003 | 88 | 157 | 4.0 | 7.0 | 0.00 | 0.00 | 0.00 | 59 | 1019.8 |
| 20260830203503 | 87 | 12 | 1.0 | 7.0 | 0.00 | 0.00 | 0.00 | 55 | 1019.8 |
| 20260830203003 | 87 | 162 | 3.0 | 7.0 | 0.00 | 0.00 | 0.00 | 57 | 1019.8 |
| 20260830202502 | 87 | 183 | 4.0 | 7.0 | 0.00 | 0.00 | 0.00 | 55 | 1019.8 |
| 20260830202002 | 87 | 197 | 3.0 | 7.0 | 0.00 | 0.00 | 0.00 | 58 | 1019.8 |
| 20260830201503 | 87 | 32 | 1.0 | 3.0 | 0.00 | 0.00 | 0.00 | 60 | 1019.9 |
| 20260830201003 | 86 | 32 | 1.0 | 6.0 | 0.00 | 0.00 | 0.00 | 60 | 1020.1 |
| 20260830200504 | 84 | 179 | 3.0 | 6.0 | 0.00 | 0.00 | 0.00 | 63 | 1020.2 |
| 20260830200003 | 85 | 143 | 3.0 | 6.0 | 0.00 | 0.00 | 0.00 | 60 | 1020.3 |
| 20260830195503 | 86 | 128 | 2.0 | 8.0 | 0.00 | 0.00 | 0.00 | 57 | 1020.3 |
| 20260830195003 | 86 | 42 | 2.0 | 8.0 | 0.00 | 0.00 | 0.00 | 59 | 1020.3 |
| 20260830194503 | 86 | 17 | 3.0 | 7.0 | 0.00 | 0.00 | 0.00 | 59 | 1020.4 |
| 20260830194004 | 85 | 116 | 2.0 | 3.0 | 0.00 | 0.00 | 0.00 | 58 | 1020.5 |
| 20260830193503 | 86 | 146 | 2.0 | 6.0 | 0.00 | 0.00 | 0.00 | 57 | 1020.6 |
| 20260830193003 | 87 | 149 | 2.0 | 7.0 | 0.00 | 0.00 | 0.00 | 57 | 1020.8 |
| 20260830192503 | 88 | 164 | 3.0 | 7.0 | 0.00 | 0.00 | 0.00 | 56 | 1020.9 |
| 20260830192003 | 87 | 134 | 2.0 | 7.0 | 0.00 | 0.00 | 0.00 | 61 | 1020.9 |
| 20260830191504 | 86 | 159 | 5.0 | 7.0 | 0.00 | 0.00 | 0.00 | 58 | 1020.9 |
| 20260830191003 | 84 | 218 | 1.0 | 7.0 | 0.00 | 0.00 | 0.00 | 58 | 1021.0 |
| 20260830190503 | 84 | 51 | 2.0 | 8.0 | 0.00 | 0.00 | 0.00 | 61 | 1021.1 |
| 20260830190004 | 84 | 31 | 4.0 | 10.0 | 0.00 | 0.00 | 0.00 | 60 | 1021.1 |
| 20260830185503 | 86 | 29 | 4.0 | 10.0 | 0.00 | 0.00 | 0.00 | 57 | 1021.1 |
| 20260830185003 | 86 | 28 | 3.0 | 9.0 | 0.00 | 0.00 | 0.00 | 59 | 1021.2 |
| 20260830184502 | 86 | 32 | 6.0 | 9.0 | 0.00 | 0.00 | 0.00 | 57 | 1021.2 |
| 20260830184024 | 86 | 50 | 2.0 | 5.0 | 0.00 | 0.00 | 0.00 | 57 | 1021.4 |
| 20260830183503 | 85 | 227 | 2.0 | 7.0 | 0.00 | 0.00 | 0.00 | 57 | 1021.5 |
| 20260830183003 | 85 | 227 | 3.0 | 7.0 | 0.00 | 0.00 | 0.00 | 59 | 1021.6 |
| 20260830182503 | 84 | 4 | 1.0 | 5.0 | 0.00 | 0.00 | 0.00 | 62 | 1021.7 |
| 20260830182002 | 83 | 31 | 2.0 | 11.0 | 0.00 | 0.00 | 0.00 | 61 | 1021.8 |
| 20260830181524 | 84 | 30 | 2.0 | 11.0 | 0.00 | 0.00 | 0.00 | 59 | 1021.8 |
| 20260830181003 | 85 | 42 | 3.0 | 7.0 | 0.00 | 0.00 | 0.00 | 57 | 1022.0 |
| 20260830180503 | 86 | 18 | 1.0 | 7.0 | 0.00 | 0.00 | 0.00 | 59 | 1022.0 |
| 20260830180004 | 86 | 15 | 3.0 | 8.0 | 0.00 | 0.00 | 0.00 | 64 | 1022.1 |
| 20260830175524 | 86 | 28 | 2.0 | 9.0 | 0.00 | 0.00 | 0.00 | 60 | 1022.3 |
| 20260830175004 | 85 | 158 | 6.0 | 9.0 | 0.00 | 0.00 | 0.00 | 61 | 1022.4 |
| 20260830174503 | 84 | 50 | 2.0 | 6.0 | 0.00 | 0.00 | 0.00 | 60 | 1022.5 |
| 20260830174004 | 84 | 339 | 2.0 | 9.0 | 0.00 | 0.00 | 0.00 | 62 | 1022.5 |
| 20260830173503 | 83 | 37 | 4.0 | 11.0 | 0.00 | 0.00 | 0.00 | 62 | 1022.4 |
| 20260830173003 | 85 | 10 | 5.0 | 11.0 | 0.00 | 0.00 | 0.00 | 67 | 1022.5 |
| 20260830172503 | 83 | 34 | 2.0 | 12.0 | 0.00 | 0.00 | 0.00 | 65 | 1022.5 |
| 20260830172003 | 83 | 24 | 3.0 | 12.0 | 0.00 | 0.00 | 0.00 | 64 | 1022.6 |
| 20260830171504 | 83 | 23 | 7.0 | 10.0 | 0.00 | 0.00 | 0.00 | 64 | 1022.7 |
| 20260830171003 | 82 | 167 | 3.0 | 9.0 | 0.00 | 0.00 | 0.00 | 67 | 1022.7 |
| 20260830170504 | 81 | 38 | 6.0 | 9.0 | 0.00 | 0.00 | 0.00 | 67 | 1022.8 |
| 20260830170003 | 81 | 32 | 1.0 | 8.0 | 0.00 | 0.00 | 0.00 | 69 | 1022.9 |
| 20260830165503 | 81 | 42 | 3.0 | 11.0 | 0.00 | 0.00 | 0.00 | 67 | 1022.9 |
| 20260830165024 | 82 | 21 | 5.0 | 11.0 | 0.00 | 0.00 | 0.00 | 68 | 1023.0 |
| 20260830164502 | 81 | 27 | 4.0 | 10.0 | 0.00 | 0.00 | 0.00 | 68 | 1023.0 |
| 20260830164004 | 81 | 5 | 5.0 | 11.0 | 0.00 | 0.00 | 0.00 | 69 | 1022.9 |
| 20260830163503 | 81 | 2 | 2.0 | 11.0 | 0.00 | 0.00 | 0.00 | 69 | 1023.0 |
| 20260830163003 | 80 | 10 | 2.0 | 6.0 | 0.00 | 0.00 | 0.00 | 74 | 1022.9 |
| 20260830162504 | 79 | 360 | 3.0 | 9.0 | 0.00 | 0.00 | 0.00 | 70 | 1023.0 |
| 20260830162003 | 80 | 6 | 5.0 | 9.0 | 0.00 | 0.00 | 0.00 | 70 | 1023.1 |
| 20260830161503 | 80 | 357 | 5.0 | 11.0 | 0.00 | 0.00 | 0.00 | 69 | 1023.1 |
| 20260830161003 | 80 | 7 | 5.0 | 11.0 | 0.00 | 0.00 | 0.00 | 74 | 1023.2 |
| 20260830160503 | 79 | 8 | 4.0 | 8.0 | 0.00 | 0.00 | 0.00 | 71 | 1023.2 |
| 20260830160004 | 79 | 340 | 3.0 | 8.0 | 0.00 | 0.00 | 0.00 | 75 | 1023.3 |
| 20260830155525 | 79 | 6 | 2.0 | 9.0 | 0.00 | 0.00 | 0.00 | 74 | 1023.3 |
| 20260830155003 | 78 | 6 | 4.0 | 9.0 | 0.00 | 0.00 | 0.00 | 76 | 1023.3 |
| 20260830154504 | 78 | 23 | 6.0 | 11.0 | 0.00 | 0.00 | 0.00 | 75 | 1023.3 |
| 20260830154004 | 78 | 40 | 7.0 | 11.0 | 0.00 | 0.00 | 0.00 | 77 | 1023.3 |
| 20260830153503 | 77 | 20 | 5.0 | 10.0 | 0.00 | 0.00 | 0.00 | 77 | 1023.3 |
| 20260830153003 | 77 | 44 | 7.0 | 11.0 | 0.00 | 0.00 | 0.00 | 77 | 1023.4 |
| 20260830152504 | 77 | 16 | 4.0 | 11.0 | 0.00 | 0.00 | 0.00 | 78 | 1023.3 |
| 20260830152003 | 77 | 15 | 5.0 | 11.0 | 0.00 | 0.00 | 0.00 | 78 | 1023.3 |
| 20260830151504 | 77 | 31 | 7.0 | 9.0 | 0.00 | 0.00 | 0.00 | 77 | 1023.3 |
| 20260830151003 | 77 | 347 | 2.0 | 7.0 | 0.00 | 0.00 | 0.00 | 79 | 1023.4 |
| 20260830150503 | 77 | 12 | 3.0 | 7.0 | 0.00 | 0.00 | 0.00 | 78 | 1023.4 |
| 20260830150025 | 77 | 11 | 3.0 | 6.0 | 0.00 | 0.00 | 0.00 | 78 | 1023.4 |
| 20260830145503 | 76 | 33 | 3.0 | 6.0 | 0.00 | 0.00 | 0.00 | 78 | 1023.4 |
| 20260830145002 | 77 | 24 | 4.0 | 8.0 | 0.00 | 0.00 | 0.00 | 78 | 1023.3 |
| 20260830144503 | 77 | 26 | 4.0 | 9.0 | 0.00 | 0.00 | 0.00 | 78 | 1023.2 |
| 20260830144004 | 77 | 16 | 5.0 | 9.0 | 0.00 | 0.00 | 0.00 | 78 | 1023.3 |
| 20260830143504 | 77 | 16 | 3.0 | 8.0 | 0.00 | 0.00 | 0.00 | 78 | 1023.2 |
| 20260830143002 | 77 | 24 | 1.0 | 7.0 | 0.00 | 0.00 | 0.00 | 78 | 1023.2 |
| 20260830142503 | 76 | 46 | 3.0 | 7.0 | 0.00 | 0.00 | 0.00 | 78 | 1023.1 |
| 20260830142024 | 76 | 41 | 3.0 | 6.0 | 0.00 | 0.00 | 0.00 | 78 | 1023.1 |
| 20260830141503 | 76 | 6 | 3.0 | 8.0 | 0.00 | 0.00 | 0.00 | 79 | 1023.1 |
| 20260830141003 | 76 | 11 | 4.0 | 8.0 | 0.00 | 0.00 | 0.00 | 81 | 1023.2 |
| 20260830140503 | 76 | 9 | 4.0 | 8.0 | 0.00 | 0.00 | 0.00 | 82 | 1023.2 |
| 20260830140004 | 76 | 28 | 4.0 | 8.0 | 0.00 | 0.00 | 0.00 | 81 | 1023.3 |
| 20260830135503 | 76 | 41 | 4.0 | 8.0 | 0.00 | 0.00 | 0.00 | 81 | 1023.3 |
| 20260830135025 | 76 | 20 | 6.0 | 11.0 | 0.00 | 0.00 | 0.00 | 82 | 1023.2 |
| 20260830134504 | 75 | 35 | 7.0 | 11.0 | 0.00 | 0.00 | 0.00 | 83 | 1023.3 |
| 20260830134024 | 75 | 34 | 5.0 | 8.0 | 0.00 | 0.00 | 0.00 | 82 | 1023.2 |
| 20260830133504 | 75 | 41 | 3.0 | 12.0 | 0.00 | 0.00 | 0.00 | 83 | 1023.2 |
| 20260830133004 | 75 | 43 | 6.0 | 12.0 | 0.00 | 0.00 | 0.00 | 83 | 1023.2 |
| 20260830132504 | 75 | 24 | 7.0 | 11.0 | 0.00 | 0.00 | 0.00 | 84 | 1023.2 |
| 20260830132004 | 75 | 19 | 4.0 | 10.0 | 0.00 | 0.00 | 0.00 | 84 | 1023.2 |
| 20260830131503 | 74 | 18 | 6.0 | 9.0 | 0.00 | 0.00 | 0.00 | 84 | 1023.2 |
| 20260830131003 | 74 | 17 | 5.0 | 9.0 | 0.00 | 0.00 | 0.00 | 86 | 1023.2 |
| 20260830130504 | 74 | 23 | 3.0 | 8.0 | 0.00 | 0.00 | 0.00 | 86 | 1023.1 |
| 20260830130004 | 74 | 21 | 5.0 | 8.0 | 0.00 | 0.00 | 0.00 | 87 | 1023.1 |
| 20260830125504 | 74 | 35 | 4.0 | 8.0 | 0.00 | 0.00 | 0.00 | 86 | 1023.1 |
| 20260830125003 | 74 | 25 | 5.0 | 8.0 | 0.00 | 0.00 | 0.00 | 87 | 1023.1 |
| 20260830124503 | 74 | 19 | 4.0 | 8.0 | 0.00 | 0.00 | 0.00 | 87 | 1023.2 |
| 20260830124003 | 74 | 35 | 5.0 | 9.0 | 0.00 | 0.00 | 0.00 | 87 | 1023.3 |
| 20260830123503 | 73 | 27 | 4.0 | 9.0 | 0.00 | 0.00 | 0.00 | 87 | 1023.2 |
| 20260830123003 | 73 | 29 | 4.0 | 7.0 | 0.00 | 0.00 | 0.00 | 87 | 1023.2 |
| 20260830122503 | 73 | 29 | 3.0 | 7.0 | 0.00 | 0.00 | 0.00 | 88 | 1023.3 |
| 20260830122003 | 73 | 20 | 3.0 | 5.0 | 0.00 | 0.00 | 0.00 | 87 | 1023.2 |
| 20260830121524 | 73 | 35 | 3.0 | 6.0 | 0.00 | 0.00 | 0.00 | 88 | 1023.3 |
| 20260830121004 | 73 | 37 | 3.0 | 7.0 | 0.00 | 0.00 | 0.00 | 88 | 1023.2 |
| 20260830120503 | 73 | 37 | 3.0 | 7.0 | 0.00 | 0.00 | 0.00 | 88 | 1023.1 |
| 20260830120003 | 73 | 45 | 3.0 | 7.0 | 0.00 | 0.00 | 0.00 | 88 | 1023.0 |
| 20260830115504 | 73 | 26 | 3.0 | 8.0 | 0.00 | 0.00 | 0.00 | 88 | 1023.0 |
| 20260830115004 | 73 | 37 | 4.0 | 8.0 | 0.00 | 0.00 | 0.00 | 88 | 1022.9 |
| 20260830114503 | 73 | 36 | 3.0 | 8.0 | 0.00 | 0.00 | 0.00 | 88 | 1022.9 |
| 20260830114004 | 73 | 39 | 5.0 | 8.0 | 0.00 | 0.00 | 0.00 | 88 | 1022.8 |
| 20260830113524 | 73 | 45 | 3.0 | 7.0 | 0.00 | 0.00 | 0.00 | 88 | 1022.8 |
| 20260830113003 | 73 | 40 | 2.0 | 7.0 | 0.00 | 0.00 | 0.00 | 88 | 1022.7 |
| 20260830112504 | 73 | 22 | 3.0 | 7.0 | 0.00 | 0.00 | 0.00 | 88 | 1022.6 |
| 20260830112004 | 73 | 37 | 3.0 | 8.0 | 0.00 | 0.00 | 0.00 | 88 | 1022.5 |
| 20260830111504 | 73 | 26 | 6.0 | 9.0 | 0.00 | 0.00 | 0.00 | 88 | 1022.5 |
| 20260830111003 | 73 | 8 | 4.0 | 10.0 | 0.00 | 0.00 | 0.00 | 88 | 1022.4 |
| 20260830110525 | 73 | 35 | 5.0 | 10.0 | 0.00 | 0.00 | 0.00 | 88 | 1022.4 |
| 20260830110005 | 73 | 56 | 2.0 | 7.0 | 0.00 | 0.00 | 0.00 | 88 | 1022.2 |
| 20260830105503 | 73 | 41 | 5.0 | 7.0 | 0.00 | 0.00 | 0.00 | 88 | 1022.2 |
| 20260830105024 | 73 | 15 | 3.0 | 5.0 | 0.00 | 0.00 | 0.00 | 88 | 1022.2 |
| 20260830104503 | 73 | 15 | 1.0 | 8.0 | 0.00 | 0.00 | 0.00 | 88 | 1022.1 |
| 20260830104004 | 73 | 32 | 3.0 | 8.0 | 0.00 | 0.00 | 0.00 | 89 | 1022.1 |
| 20260830103524 | 73 | 43 | 4.0 | 7.0 | 0.00 | 0.00 | 0.00 | 89 | 1022.1 |
| 20260830103004 | 73 | 23 | 3.0 | 6.0 | 0.00 | 0.00 | 0.00 | 89 | 1022.0 |
| 20260830102504 | 73 | 18 | 3.0 | 7.0 | 0.00 | 0.00 | 0.00 | 89 | 1022.0 |
| 20260830102003 | 73 | 37 | 3.0 | 7.0 | 0.00 | 0.00 | 0.00 | 89 | 1021.9 |
| 20260830101503 | 73 | 29 | 3.0 | 5.0 | 0.00 | 0.00 | 0.00 | 89 | 1021.7 |
| 20260830101025 | 73 | 49 | 2.0 | 7.0 | 0.00 | 0.00 | 0.00 | 89 | 1021.7 |
| 20260830100503 | 73 | 24 | 4.0 | 7.0 | 0.00 | 0.00 | 0.00 | 91 | 1021.7 |
| 20260830100003 | 73 | 22 | 4.0 | 7.0 | 0.00 | 0.00 | 0.00 | 91 | 1021.6 |
| 20260830095503 | 73 | 36 | 5.0 | 8.0 | 0.00 | 0.00 | 0.00 | 91 | 1021.7 |
| 20260830095004 | 72 | 16 | 3.0 | 8.0 | 0.00 | 0.00 | 0.00 | 91 | 1021.5 |
| 20260830094503 | 72 | 17 | 6.0 | 8.0 | 0.00 | 0.00 | 0.00 | 91 | 1021.5 |
| 20260830094004 | 73 | 27 | 2.0 | 5.0 | 0.00 | 0.00 | 0.00 | 92 | 1021.5 |
| 20260830093503 | 73 | 32 | 2.0 | 4.0 | 0.00 | 0.00 | 0.00 | 92 | 1021.5 |
| 20260830093003 | 73 | 32 | 1.0 | 5.0 | 0.00 | 0.00 | 0.00 | 92 | 1021.5 |
| 20260830092504 | 72 | 32 | 1.0 | 5.0 | 0.00 | 0.00 | 0.00 | 92 | 1021.5 |
| 20260830092003 | 72 | 33 | 2.0 | 6.0 | 0.00 | 0.00 | 0.00 | 92 | 1021.4 |
| 20260830091504 | 72 | 33 | 3.0 | 7.0 | 0.00 | 0.00 | 0.00 | 92 | 1021.5 |
| 20260830091004 | 72 | 358 | 3.0 | 7.0 | 0.00 | 0.00 | 0.00 | 92 | 1021.5 |
| 20260830090505 | 72 | 41 | 2.0 | 6.0 | 0.00 | 0.00 | 0.00 | 92 | 1021.6 |
| 20260830090005 | 72 | 9 | 2.0 | 7.0 | 0.00 | 0.00 | 0.00 | 92 | 1021.4 |
| 20260830085503 | 72 | 7 | 3.0 | 7.0 | 0.00 | 0.00 | 0.00 | 92 | 1021.3 |
| 20260830085004 | 72 | 11 | 3.0 | 6.0 | 0.00 | 0.00 | 0.00 | 92 | 1021.5 |
| 20260830084504 | 72 | 13 | 4.0 | 6.0 | 0.00 | 0.00 | 0.00 | 92 | 1021.5 |
| 20260830084025 | 72 | 13 | 2.0 | 4.0 | 0.00 | 0.00 | 0.00 | 92 | 1021.5 |
| 20260830083503 | 72 | 11 | 3.0 | 4.0 | 0.00 | 0.00 | 0.00 | 92 | 1021.6 |
| 20260830083003 | 72 | 15 | 1.0 | 4.0 | 0.00 | 0.00 | 0.00 | 92 | 1021.6 |
| 20260830082503 | 72 | 15 | 2.0 | 3.0 | 0.00 | 0.00 | 0.00 | 92 | 1021.5 |
| 20260830082003 | 72 | 15 | 2.0 | 2.0 | 0.00 | 0.00 | 0.00 | 92 | 1021.6 |
| 20260830081504 | 72 | 15 | 1.0 | 3.0 | 0.00 | 0.00 | 0.00 | 92 | 1021.6 |
| 20260830081004 | 72 | 15 | 1.0 | 5.0 | 0.00 | 0.00 | 0.00 | 92 | 1021.6 |
| 20260830080504 | 72 | 15 | 3.0 | 5.0 | 0.00 | 0.00 | 0.00 | 92 | 1021.8 |
| 20260830080026 | 72 | 15 | 2.0 | 4.0 | 0.00 | 0.00 | 0.00 | 92 | 1021.8 |
| 20260830075524 | 72 | 15 | 2.0 | 4.0 | 0.00 | 0.00 | 0.00 | 92 | 1021.8 |
| 20260830075003 | 72 | 15 | 2.0 | 3.0 | 0.00 | 0.00 | 0.00 | 92 | 1021.7 |
| 20260830074504 | 72 | 15 | 1.0 | 4.0 | 0.00 | 0.00 | 0.00 | 92 | 1021.8 |
| 20260830074003 | 72 | 15 | 2.0 | 4.0 | 0.00 | 0.00 | 0.00 | 92 | 1021.9 |
| 20260830073504 | 72 | 15 | 1.0 | 3.0 | 0.00 | 0.00 | 0.00 | 92 | 1021.9 |
| 20260830073004 | 72 | 15 | 2.0 | 4.0 | 0.00 | 0.00 | 0.00 | 92 | 1021.9 |
| 20260830072503 | 72 | 15 | 2.0 | 4.0 | 0.00 | 0.00 | 0.00 | 92 | 1021.8 |
| 20260830072003 | 72 | 15 | 2.0 | 4.0 | 0.00 | 0.00 | 0.00 | 92 | 1021.8 |
| 20260830071524 | 72 | 15 | 3.0 | 4.0 | 0.00 | 0.00 | 0.00 | 92 | 1021.9 |
| 20260830071002 | 72 | 356 | 2.0 | 4.0 | 0.00 | 0.00 | 0.00 | 92 | 1021.9 |
| 20260830070502 | 71 | 356 | 1.0 | 2.0 | 0.00 | 0.00 | 0.00 | 92 | 1021.9 |
| 20260830070003 | 71 | 356 | 2.0 | 5.0 | 0.00 | 0.00 | 0.00 | 92 | 1021.9 |
| 20260830065502 | 71 | 356 | 2.0 | 5.0 | 0.00 | 0.00 | 0.00 | 92 | 1022.0 |
| 20260830065002 | 72 | 332 | 2.0 | 4.0 | 0.00 | 0.00 | 0.00 | 91 | 1021.8 |
| 20260830064503 | 72 | 332 | 0.0 | 6.0 | 0.00 | 0.00 | 0.00 | 92 | 1021.9 |